TimeEDT,TemperatureF,Dew PointF,Humidity,Sea Level PressureIn,VisibilityMPH,Wind Direction,Wind SpeedMPH,Gust SpeedMPH,PrecipitationIn,Events,Conditions,WindDirDegrees,DateUTC
12:53 AM,72.0,70.0,93,29.84,10.0,Calm,Calm,-,N/A,,Clear,0,2013-09-03 04:53:00
1:53 AM,72.0,70.0,93,29.84,10.0,Calm,Calm,-,N/A,,Clear,0,2013-09-03 05:53:00
2:53 AM,72.0,70.0,93,29.83,10.0,SSW,4.6,-,N/A,,Clear,200,2013-09-03 06:53:00
3:53 AM,70.0,68.0,93,29.83,9.0,Calm,Calm,-,N/A,,Clear,0,2013-09-03 07:53:00
4:53 AM,69.1,68.0,96,29.84,7.0,Calm,Calm,-,N/A,,Clear,0,2013-09-03 08:53:00
5:53 AM,69.1,68.0,96,29.85,7.0,West,3.5,-,N/A,,Clear,260,2013-09-03 09:53:00
6:53 AM,70.0,66.0,87,29.86,10.0,North,3.5,-,N/A,,Clear,350,2013-09-03 10:53:00
7:53 AM,72.0,63.0,73,29.88,10.0,NNW,3.5,-,N/A,,Overcast,340,2013-09-03 11:53:00
8:20 AM,69.8,64.4,83,29.92,8.0,WSW,12.7,-,0.00,Rain-Thunderstorm,Light Rain,240,2013-09-03 12:20:00
8:53 AM,70.0,63.0,78,29.87,10.0,SW,11.5,-,0.00,Rain-Thunderstorm,Light Thunderstorms and Rain,220,2013-09-03 12:53:00
9:22 AM,68.0,64.4,88,29.87,10.0,WSW,4.6,-,0.02,,Scattered Clouds,250,2013-09-03 13:22:00
9:53 AM,68.0,66.0,93,29.88,10.0,West,8.1,-,0.02,,Clear,270,2013-09-03 13:53:00
10:53 AM,73.0,66.0,79,29.91,10.0,Variable,3.5,-,N/A,,Clear,0,2013-09-03 14:53:00
11:53 AM,80.1,64.9,60,29.91,10.0,North,3.5,-,N/A,,Clear,360,2013-09-03 15:53:00
12:53 PM,84.0,64.0,51,29.91,10.0,Variable,5.8,-,N/A,,Clear,0,2013-09-03 16:53:00
1:53 PM,86.0,63.0,46,29.90,10.0,North,4.6,-,N/A,,Clear,10,2013-09-03 17:53:00
2:53 PM,87.1,64.0,46,29.88,10.0,NE,6.9,-,N/A,,Clear,40,2013-09-03 18:53:00
3:53 PM,88.0,66.0,48,29.86,10.0,Variable,5.8,-,N/A,,Clear,0,2013-09-03 19:53:00
4:53 PM,84.0,69.1,61,29.85,10.0,Variable,4.6,-,N/A,,Mostly Cloudy,0,2013-09-03 20:53:00
5:53 PM,87.1,64.9,48,29.86,10.0,North,6.9,-,N/A,,Scattered Clouds,350,2013-09-03 21:53:00
6:53 PM,82.9,66.0,56,29.86,10.0,Calm,Calm,-,N/A,,Mostly Cloudy,0,2013-09-03 22:53:00
7:53 PM,79.0,68.0,69,29.88,10.0,Calm,Calm,-,N/A,,Scattered Clouds,0,2013-09-03 23:53:00
8:53 PM,77.0,66.9,71,29.91,10.0,Calm,Calm,-,N/A,,Mostly Cloudy,0,2013-09-04 00:53:00
9:53 PM,75.9,64.0,67,29.94,10.0,North,4.6,-,N/A,,Partly Cloudy,350,2013-09-04 01:53:00
10:53 PM,75.0,64.0,69,29.96,10.0,Calm,Calm,-,N/A,,Partly Cloudy,0,2013-09-04 02:53:00
11:53 PM,75.9,64.0,67,29.96,9.0,NNE,3.5,-,N/A,,Clear,20,2013-09-04 03:53:00